DELTA 1 DEB, 27788

Orbit data source: Space-Track

DELTA 1 DEB, 27788 is space debris in LEO originally from a launch on Sat, 06 Nov 1965 UTC launched from the Air Force Eastern Test Range (AFETR). Debris objects in space refer to the collection of defunct objects orbiting the Earth. Examples of debris include non-operational satellites, rocket bodies, and fragments generated from explosions, collisions, or faulty payload assembly.

Loading next visibility...
Identifier
27788, 1965-089E
Orbit
LEO
Country
Flag of USUS
Related business
Manufacturer
Unknown
Mission
Spacecraft
Bus & Motor
Unknown
Mass
Unknown
Launch date (UTC)
1965-11-06 (60 years ago)
Launch vehicle
Unknown
Launch site
Air Force Eastern Test Range (AFETR)
Object type
Payload
Rocket body
Debris
Shape & HBR
Unknown shape, 0.1 m
Radar Cross Section
Small (<0.1 m²)

Expand to show TLE details & history
Last TLE update: 3 days ago

TLE from 3 days ago
0 DELTA 1 DEB
1 27788U 65089E   25351.32095582  .00000943  00000-0  47603-2 0  9998
2 27788  59.3782 193.7312 0613668 107.0230  61.6938 12.28794664591543
Epoch: 2025-12-17T07:42Z
TLE epoch observation values (Epoch: 2025-12-17T07:42:10.582Z)
Latitude
4.13322°
Longitude
169.55537°
Altitude
1,348.669 km
Speed
7.278 km/s
True Right ascension
00h 45m 10s
True Declination
4° 06' 38"
Sunlit
Object was in daylight at epoch
Visualization orbit readout
Latitude
Unknown
Longitude
Unknown
Altitude
Unknown
Speed
Unknown
Apparent Right ascension
Unknown
Apparent Declination
Unknown
Sunlit
N/A
Visualization observer readout
Local Sidereal Time
07:58:46
Azimuth
Unknown
Elevation
Unknown
Doppler factor
Unknown
Orbital elements
Apogee altitude
2,040.611 km
Perigee altitude
1,067.09 km
Semi-major axis
7,931.988 km
Eccentricity
0.06137
Inclination
59.3782°
RAAN
193.7312°
Arg. of periapsis
107.023°
True anomaly
68.10493°
Mean anomaly
61.6938°
Eccentric anomaly
64.87724°
Mean motion
3.07235 °/min
Orbital period
117.17 mins
BSTAR
0.0047603
Loading maneuver chart data...
Computing Atmospheric mass density...
Loading historical data...
Loading historical data...
Loading historical data...
Loading historical data...
Loading historical data...
Loading historical data...
Loading historical data...

Documentation

Showing up to 5 results
|